Location: Lancaster
(54.0470°N, 2.8020°W)
Time: 15:43:22
(UTC+01:00)

COSMOS 2428 - Visible Passes

Search period start: 26 September 2017 00:00
Search period end: 06 October 2017 00:00
Orbit: 846 x 856 km, 70.9° (Epoch: 26 September)

Date Brightness Start Highest point End Pass type
(mag) Time Alt. Az. Time Alt. Az. Time Alt. Az.
26 Sep 4.9 01:16:44 10° NW 01:18:14 18° NW 01:18:14 18° NW visible
26 Sep 5.0 19:50:21 10° NW 19:53:25 14° N 19:56:30 10° NNE visible
26 Sep 4.5 21:35:53 10° NNW 21:40:02 20° NNE 21:42:09 17° NE visible
26 Sep 3.7 23:20:03 10° NNW 23:24:09 42° N 23:24:09 42° N visible
27 Sep 4.9 01:04:35 10° NW 01:06:09 18° NW 01:06:09 18° NW visible
27 Sep 4.9 19:38:11 10° NW 19:41:16 14° N 19:44:20 10° NNE visible
27 Sep 4.5 21:23:43 10° NNW 21:27:52 20° NNE 21:30:05 16° NE visible
27 Sep 3.6 23:07:52 10° NNW 23:12:05 43° N 23:12:05 43° N visible
28 Sep 4.9 00:52:26 10° NW 00:54:05 19° NW 00:54:05 19° NW visible
28 Sep 4.9 19:26:03 10° NW 19:29:06 14° N 19:32:10 10° NNE visible
28 Sep 4.5 21:11:33 10° NNW 21:15:42 20° NNE 21:18:02 16° NE visible
28 Sep 3.6 22:55:43 10° NNW 23:00:02 44° N 23:00:02 44° N visible
29 Sep 4.8 00:40:16 10° NW 00:42:02 19° NW 00:42:02 19° NW visible
29 Sep 4.5 20:59:24 10° NNW 21:03:33 20° NNE 21:06:00 16° ENE visible
29 Sep 3.5 22:43:33 10° NNW 22:48:00 46° N 22:48:00 46° N visible
30 Sep 4.8 00:28:06 10° NW 00:30:00 20° NW 00:30:00 20° NW visible
30 Sep 4.5 20:47:14 10° NNW 20:51:24 20° NNE 20:53:59 15° ENE visible
30 Sep 3.4 22:31:24 10° NNW 22:35:59 47° NNE 22:35:59 47° NNE visible
01 Oct 4.8 00:15:57 10° NW 00:17:59 21° NW 00:17:59 21° NW visible
01 Oct 4.4 20:35:05 10° NNW 20:39:14 20° NNE 20:42:00 15° ENE visible
01 Oct 3.3 22:19:14 10° NNW 22:24:00 49° NNE 22:24:00 49° NNE visible
02 Oct 4.7 00:03:47 10° NW 00:06:00 22° WNW 00:06:00 22° WNW visible
02 Oct 4.4 20:22:55 10° NNW 20:27:05 20° NNE 20:30:01 14° ENE visible
02 Oct 3.2 22:07:05 10° NNW 22:12:01 51° NNE 22:12:01 51° NNE visible
02 Oct 4.6 23:51:37 10° NW 23:54:01 23° WNW 23:54:01 23° WNW visible
03 Oct 4.4 20:10:45 10° NNW 20:14:55 20° NNE 20:18:04 13° ENE visible
03 Oct 3.1 21:54:54 10° NNW 22:00:04 52° NNE 22:00:04 52° NNE visible
03 Oct 4.6 23:39:27 10° NW 23:42:04 25° WNW 23:42:04 25° WNW visible
04 Oct 4.4 19:58:35 10° NNW 20:02:45 20° NNE 20:06:08 13° ENE visible
04 Oct 3.0 21:42:44 10° NNW 21:48:08 53° NE 21:48:08 53° NE visible
04 Oct 4.5 23:27:17 10° NW 23:30:08 26° WNW 23:30:08 26° WNW visible
05 Oct 4.3 19:46:25 10° NNW 19:50:35 20° NNE 19:54:13 12° ENE visible
05 Oct 2.9 21:30:35 10° NNW 21:36:11 53° NE 21:36:14 53° NE visible
05 Oct 4.4 23:15:07 10° NW 23:18:14 28° WNW 23:18:14 28° WNW visible
